Simultaneous Nadir Overpasses (SNOs) Predictions

Prediction of SNOs between GOES-16 and METOP-B Satellite Orbit:

Table of predicted SNOs for the next 14.0 days since TLE Epoch: 4/16/2022
Index Date Time (GOES-16) GOES-16 Lat,Lon METOP-B Lat,Lon Distance(km) Time Diff (sec)
1 04/17/2022 02:15:59 -0.06, -75.21 0.65, -71.90 377.52 80
2 04/18/2022 14:34:51 0.06, -75.24 0.34, -76.46 139.07 80
3 04/19/2022 14:14:12 0.06, -75.25 -0.78, -71.47 430.63 80
4 04/21/2022 02:35:52 -0.06, -75.24 -0.23, -76.07 94.37 80
5 04/22/2022 02:12:33 -0.05, -75.24 0.89, -71.07 475.34 80
6 04/23/2022 14:31:24 0.05, -75.27 0.15, -75.63 40.91 80
7 04/26/2022 02:29:45 -0.04, -75.28 -0.03, -75.23 5.95 80
8 04/28/2022 14:30:37 0.04, -75.35 -0.07, -74.80 62.53 80
